{"data":{"norad_id":44059,"epoch":"2026-09-19T07:29:24.064512Z","epoch_age_seconds":117066,"freshness":"FRESH","line1":"1 44059U 19010C   26262.31208408  .00000159  00000+0  38128-3 0  9996","line2":"2 44059  87.9155 210.0887 0001915  88.8092 271.3258 13.16593807364112","mean_motion":13.16593807,"eccentricity":0.0001915,"inclination_deg":87.9155,"raan_deg":210.0887,"arg_perigee_deg":88.8092,"mean_anomaly_deg":271.3258,"bstar":0.00038128,"rev_number":36411,"period_min":109.37314092956,"perigee_km":1196.3076093745,"apogee_km":1199.2091773101,"semimajor_km":7575.8953933423,"source":"CELESTRAK","updated_at":"2026-09-20T09:00:44.543718Z"}}